Location: Flotzheim
(48.8375°N, 10.8136°E)
Time: 03:33:51
(UTC+00:00)

Cosmos 1680 Rocket - Pass Details

Date: 23 January 2021
Orbit: 760 x 780 km, 74.1° (Epoch: 26 February)

Event Time Altitude Azimuth Distance (km) Brightness Sun altitude
Rises 18:09:38 0° 333° (NNW) 3,249 7.0 -21.0°
Reaches altitude 10° 18:12:04 10° 329° (NNW) 2,315 6.3 -21.4°
Maximum altitude 18:17:10 54° 253° (WSW) 928 4.2 -22.3°
Drops below altitude 10° 18:22:13 10° 177° (S) 2,289 6.0 -23.1°
Sets 18:24:36 0° 173° (S) 3,209 6.7 -23.5°
